Voltar ao catálogo

STARLINK-32261

AtivoComunicaçõesVLEO
NORAD 61530·PAYLOAD·🇺🇸 United States

Lançado Oct 15, 2024 de Cape Canaveral Space Force Station

Loading…

Próximas Passagens (próximas 24 horas)

TLE

AtualizadoSource: CelesTrak SupGP

Época: Sep 14, 2026, 21:31 UTC

1 61530C 24183X   26257.89701389 -.00016966  00000+0 -54557-3 0  2575
2 61530  53.1581 342.3713 0001150  91.8598  76.2418 15.31710733    10

Acompanhe STARLINK-32261 em tempo real com AllMySat

Download on the App Store